logo tempoitalia

Diretta Meteo Hyeres, Franciasabato 21 maggio ore 16:30

Mappa
Sereno 24 °C Sereno 24 Ore: T.min 16 T.max 24
Ponente Sud-Ovest Km/h 27.8 Punto di rugiada: 19 °C Umidità: 73% Visibilità: 9 Km
Il sole sorge alle: 06:04 Il sole tramonta alle: 20:59
21 Maggio 2022 16:30 tempo osservato: Sereno Sereno 24 73 1018 vento: Nord SO 27.8
21 Maggio 2022 16:00 tempo osservato: Sereno Sereno 23 78 1018 vento: Nord O/SO 33.3
21 Maggio 2022 15:30 tempo osservato: Sereno Sereno 24 73 1019 vento: Nord SO 33.3
21 Maggio 2022 15:00 tempo osservato: Sereno Sereno 24 73 1019 vento: Nord SO 35.2
21 Maggio 2022 14:30 tempo osservato: Sereno Sereno 23 78 1019 vento: Nord SO 33.3
21 Maggio 2022 14:00 tempo osservato: Sereno Sereno 24 78 1020 vento: Nord SO 35.2
21 Maggio 2022 13:30 tempo osservato: Sereno Sereno 23 78 1020 vento: Nord SO 31.5
21 Maggio 2022 13:00 tempo osservato: Sereno Sereno 24 78 1020 vento: Nord SO 27.8
21 Maggio 2022 12:30 tempo osservato: Sereno Sereno 23 78 1020 vento: Nord SO 31.5
21 Maggio 2022 12:00 tempo osservato: Sereno Sereno 23 78 1020 vento: Nord SO 29.6
21 Maggio 2022 11:30 tempo osservato: Sereno Sereno 23 78 1020 vento: Nord SO 31.5
21 Maggio 2022 11:00 tempo osservato: Sereno Sereno 23 78 1021 vento: Nord SO 20.3
21 Maggio 2022 10:30 tempo osservato: Sereno Sereno 23 78 1021 vento: Nord SO 24
21 Maggio 2022 10:00 tempo osservato: Sereno Sereno 23 78 1021 vento: Nord SO 24
21 Maggio 2022 09:30 tempo osservato: Sereno Sereno 23 78 1021 vento: Nord SO 20.3
21 Maggio 2022 09:00 tempo osservato: Sereno Sereno 23 78 1021 vento: Nord SO 16.7
21 Maggio 2022 08:30 tempo osservato: Sereno Sereno 23 64 1021 vento: Nord N 1.8
21 Maggio 2022 08:00 tempo osservato: Sereno Sereno 21 73 1021 vento: Nord N 3.7
21 Maggio 2022 07:30 tempo osservato: Sereno Sereno 19 72 1021 vento: Nord N 3.7
21 Maggio 2022 07:00 tempo osservato: Sereno Sereno 19 77 1022 vento: Nord N 3.7
21 Maggio 2022 06:30 tempo osservato: Sereno Sereno 18 77 1022 vento: Nord N 3.7
21 Maggio 2022 06:00 tempo osservato: Sereno Sereno 18 77 1022 vento: Nord O/NO 7.4
21 Maggio 2022 05:30 tempo osservato: Sereno Sereno 18 72 1022 vento: Nord O/NO 7.4
21 Maggio 2022 05:00 tempo osservato: Sereno Sereno 18 77 1022 vento: Nord N 5.5
21 Maggio 2022 04:30 tempo osservato: Sereno Sereno 17 82 1022 vento: Nord N 3.7
21 Maggio 2022 04:00 tempo osservato: Sereno Sereno 17 82 1022 vento: Nord N 3.7
21 Maggio 2022 03:30 tempo osservato: Sereno Sereno 16 87 1022 vento: Nord N 3.7
21 Maggio 2022 03:00 tempo osservato: Sereno Sereno 16 93 1022 vento: Nord N 1.8
21 Maggio 2022 02:30 tempo osservato: Sereno Sereno 17 88 1023 vento: Nord N 3.7
21 Maggio 2022 02:00 tempo osservato: Sereno Sereno 17 88 1023 vento: Nord N 1.8
21 Maggio 2022 01:30 tempo osservato: Sereno Sereno 18 82 1023 vento: Nord N 3.7
21 Maggio 2022 01:00 tempo osservato: Sereno Sereno 18 88 1024 vento: Nord N 0
21 Maggio 2022 00:30 tempo osservato: Sereno Sereno 17 93 1024 vento: Nord N 1.8
21 Maggio 2022 00:00 tempo osservato: Sereno Sereno 18 88 1024 vento: Nord N 0
20 Maggio 2022 23:30 tempo osservato: Sereno Sereno 19 88 1024 vento: Nord N 0
20 Maggio 2022 23:00 tempo osservato: Sereno Sereno 20 93 1024 vento: Nord N 5.5
20 Maggio 2022 22:30 tempo osservato: Sereno Sereno 20 93 1024 vento: Nord N 3.7
20 Maggio 2022 22:00 tempo osservato: Sereno Sereno 21 88 1024 vento: Nord N 5.5
20 Maggio 2022 21:30 tempo osservato: Sereno Sereno 21 88 1024 vento: Nord SO 13
20 Maggio 2022 21:00 tempo osservato: Sereno Sereno 21 88 1024 vento: Nord SO 11.1
20 Maggio 2022 20:30 tempo osservato: Sereno Sereno 21 88 1024 vento: Nord SO 11.1
20 Maggio 2022 20:00 tempo osservato: Sereno Sereno 22 83 1024 vento: Nord SO 13
20 Maggio 2022 19:30 tempo osservato: Sereno Sereno 23 78 1024 vento: Nord SO 14.8
20 Maggio 2022 19:00 tempo osservato: Sereno Sereno 23 73 1024 vento: Nord S/SO 16.7
20 Maggio 2022 18:30 tempo osservato: Sereno Sereno 24 64 1024 vento: Nord SO 14.8
20 Maggio 2022 18:00 tempo osservato: Sereno Sereno 24 64 1025 vento: Nord S/SO 16.7